GW0544 Weather Reports


Display with metric or nautical units.
time (UTC)temp
F
wind
direction
speed
MPH
gust
MPH
rain 1hr
in
rain 24hr
in
rain mn
in
humidity
%
barometer
mb
20260506143057 45 88 1.0 3.0 0.00 0.02 0.00 92 1019.1
20260506141554 42 0 0.0 4.0 0.00 0.02 0.00 91 1019.1
20260506140111 39 92 1.0 3.0 0.00 0.02 0.00 90 1019.0
20260506134555 38 0 1.0 3.0 0.00 0.05 0.00 90 1018.8
20260506133059 38 0 0.0 3.0 0.00 0.05 0.00 90 1018.6
20260506131601 37 0 0.0 1.0 0.00 0.05 0.00 89 1018.5
20260506130138 37 0 0.0 2.0 0.00 0.05 0.00 89 1018.3
20260506124600 36 0 0.0 2.0 0.00 0.10 0.00 89 1018.2
20260506123052 36 0 0.0 3.0 0.00 0.10 0.00 89 1018.1
20260506121551 35 0 0.0 0.0 0.00 0.10 0.00 89 1018.1
20260506120053 34 0 0.0 2.0 0.00 0.10 0.00 89 1018.1
20260506114557 33 0 0.0 0.0 0.00 0.13 0.00 88 1018.0
20260506113103 32 155 0.0 2.0 0.00 0.13 0.00 87 1018.0
20260506111554 32 0 0.0 2.0 0.00 0.13 0.00 86 1018.0
20260506104610 33 0 0.0 0.0 0.00 0.20 0.00 86 1017.9
20260506103055 33 0 0.0 0.0 0.00 0.20 0.00 87 1017.9
20260506101606 33 0 0.0 0.0 0.00 0.20 0.00 85 1017.9
20260506100104 34 0 0.0 0.0 0.00 0.20 0.00 85 1017.6
20260506094605 35 0 0.0 0.0 0.00 0.21 0.00 85 1017.7
20260506093100 35 0 0.0 1.0 0.00 0.21 0.00 85 1017.6
20260506091556 36 0 0.0 0.0 0.00 0.21 0.00 85 1017.7
20260506090058 36 0 0.0 0.0 0.00 0.21 0.00 85 1017.9
20260506084556 37 156 0.0 3.0 0.00 0.21 0.00 85 1018.1
20260506083053 37 0 0.0 2.0 0.00 0.21 0.00 84 1018.1
20260506081549 37 0 0.0 0.0 0.00 0.21 0.00 83 1018.3
20260506073104 40 0 0.0 2.0 0.00 0.21 0.00 82 1018.6
20260506071611 42 0 0.0 0.0 0.00 0.21 0.00 81 1018.6
20260506061555 45 187 0.0 2.0 0.00 0.21 0.21 83 1018.4
20260506044601 48 261 2.0 10.0 0.00 0.21 0.21 79 1018.0
20260506043050 49 298 4.0 9.0 0.00 0.21 0.21 80 1018.0
20260506041605 49 323 3.0 8.0 0.00 0.21 0.21 79 1017.7
20260506040054 50 279 0.0 4.0 0.00 0.21 0.21 79 1017.5
20260506034556 49 269 2.0 6.0 0.00 0.21 0.21 79 1017.3
20260506033100 49 315 1.0 9.0 0.00 0.21 0.21 79 1017.1
20260506031557 49 311 2.0 8.0 0.00 0.21 0.21 77 1016.8
20260506030053 50 340 2.0 10.0 0.00 0.21 0.21 76 1016.6
20260506024553 51 303 2.0 9.0 0.00 0.21 0.21 73 1016.3
20260506023100 51 283 4.0 11.0 0.00 0.21 0.21 72 1016.2
20260506021556 52 294 2.0 11.0 0.00 0.21 0.21 70 1015.9
20260506020054 53 329 4.0 13.0 0.00 0.21 0.21 67 1015.8
20260506014558 54 337 5.0 14.0 0.00 0.21 0.21 67 1015.7
20260506013055 54 331 3.0 14.0 0.00 0.21 0.21 66 1015.6
20260506011554 56 320 5.0 13.0 0.00 0.21 0.21 64 1015.4
20260506010051 55 316 5.0 15.0 0.00 0.21 0.21 65 1015.1
20260506004558 55 300 5.0 15.0 0.00 0.21 0.21 64 1015.2
20260506003050 54 293 10.0 19.0 0.00 0.21 0.21 65 1015.2
20260506001609 55 319 9.0 19.0 0.00 0.21 0.21 63 1015.2
20260506000051 56 340 5.0 16.0 0.00 0.21 0.21 61 1015.1
20260505234554 57 278 7.0 15.0 0.00 0.21 0.21 61 1015.0
20260505233057 57 219 5.0 15.0 0.00 0.21 0.21 60 1014.9
20260505231555 56 274 8.0 17.0 0.00 0.21 0.21 61 1015.1
20260505224550 57 317 7.0 14.0 0.00 0.21 0.21 61 1015.3
20260505223058 57 267 4.0 12.0 0.00 0.21 0.21 63 1015.2
20260505221553 57 313 5.0 13.0 0.00 0.21 0.21 64 1015.5
20260505220056 58 302 7.0 16.0 0.00 0.21 0.21 60 1015.7
20260505214601 57 306 6.0 17.0 0.00 0.21 0.21 63 1015.8
20260505213059 56 298 7.0 18.0 0.00 0.21 0.21 69 1015.8
20260505211553 55 327 6.0 12.0 0.00 0.21 0.21 70 1016.0
20260505210056 56 292 5.0 13.0 0.00 0.21 0.21 70 1016.1
20260505204553 56 292 6.0 14.0 0.00 0.21 0.21 70 1016.1
20260505203056 55 309 4.0 12.0 0.00 0.21 0.21 72 1016.1
20260505201601 54 256 4.0 15.0 0.00 0.21 0.21 75 1016.3
20260505200053 53 309 8.0 16.0 0.00 0.21 0.21 76 1016.5
20260505194549 53 284 6.0 14.0 0.00 0.21 0.21 77 1016.3
20260505193057 51 306 5.0 15.0 0.00 0.21 0.21 79 1016.7
20260505191558 51 285 5.0 14.0 0.00 0.21 0.21 80 1016.7
20260505190113 52 273 7.0 12.0 0.00 0.21 0.21 80 1016.5
20260505184606 52 263 5.0 12.0 0.00 0.21 0.21 79 1016.3
20260505183056 52 311 6.0 11.0 0.00 0.21 0.21 81 1016.5
20260505181559 51 326 3.0 9.0 0.00 0.21 0.21 83 1016.3
20260505180056 51 261 3.0 14.0 0.00 0.21 0.21 80 1016.2
20260505174554 50 298 6.0 15.0 0.00 0.21 0.21 81 1016.1
20260505173052 50 326 6.0 15.0 0.00 0.21 0.21 83 1016.0
20260505171555 50 352 5.0 12.0 0.00 0.21 0.21 85 1015.9
20260505170105 49 334 6.0 11.0 0.01 0.21 0.21 85 1015.7
20260505164558 49 314 5.0 13.0 0.01 0.21 0.21 87 1015.7
20260505163102 48 288 4.0 14.0 0.01 0.21 0.21 87 1015.7
20260505161555 48 198 6.0 13.0 0.01 0.21 0.21 87 1015.6
20260505153106 48 265 6.0 11.0 0.00 0.20 0.20 88 1015.3
20260505151552 49 273 5.0 10.0 0.00 0.20 0.20 88 1015.2
20260505150111 48 305 7.0 14.0 0.01 0.20 0.20 90 1014.9